Location: Bailen
(14.1842°N, 120.7958°E)
Time: 04:36:32
(UTC+00:00)

Meteor 2-10 Rocket - Visible Passes

Search period start: 21 April 2026 00:00
Search period end: 01 May 2026 00:00
Orbit: 732 x 882 km, 81.2° (Epoch: 20 April)

Date Brightness Start Highest point End Pass type
(mag) Time Alt. Az. Time Alt. Az. Time Alt. Az.
21 Apr 3.5 20:04:09 10° N 20:09:27 88° WSW 20:14:57 10° S visible
22 Apr 4.1 19:39:12 10° N 19:44:25 59° E 19:49:51 10° SSE visible
23 Apr 4.9 19:14:29 10° NNE 19:19:23 37° E 19:24:27 10° SSE visible
23 Apr 5.2 20:58:17 10° WNW 21:01:02 14° W 21:03:50 10° WSW visible
24 Apr 5.6 18:50:06 10° NNE 18:54:20 24° E 18:55:39 22° ESE visible
24 Apr 4.7 20:31:56 10° NW 20:36:03 23° W 20:36:34 22° WSW visible
25 Apr 6.2 18:26:15 10° NE 18:28:51 15° ENE 18:28:51 15° ENE visible
25 Apr 4.4 20:06:12 10° NNW 20:09:49 32° WNW 20:09:49 32° WNW visible
26 Apr 4.7 19:40:48 10° NNW 19:43:38 31° NNW 19:43:38 31° NNW visible
27 Apr 5.3 19:15:39 10° N 19:17:44 25° N 19:17:44 25° N visible
28 Apr 5.8 18:50:43 10° N 18:52:03 18° N 18:52:03 18° N visible
29 Apr 6.3 18:26:01 10° NNE 18:26:29 12° NNE 18:26:29 12° NNE visible
